Wetterdaten: Sonntag, 04.01.2015
Datum Zeit Temp. A. Feuchte A. Luftdruck Regen Wind Richtung Richtung Sonnenschein ET UV Solar Taupunkt Windchill Windben Empfang
04.01.2015 00:00 -0,3 C 83 % 1013,8 hPa 0,0 l/m 0,0 km/h (0 Bft) S-SW 204 0 min 0,000 mm 0,0 UV-I 0 W/m -2,8 C -0,3 C 0,0 km/h (0 Bft) 0,00 %
04.01.2015 00:15 -0,3 C 83 % 1014,2 hPa 0,0 l/m 0,0 km/h (0 Bft) SW 228 0 min 0,000 mm 0,0 UV-I 0 W/m -2,8 C -0,3 C 0,0 km/h (0 Bft) 0,00 %
04.01.2015 00:30 -0,2 C 83 % 1014,7 hPa 0,3 l/m 0,0 km/h (0 Bft) W-SW 253 0 min 0,000 mm 0,0 UV-I 0 W/m -2,7 C -0,2 C 0,0 km/h (0 Bft) 0,00 %
04.01.2015 00:45 -0,2 C 83 % 1015,0 hPa 0,0 l/m 0,0 km/h (0 Bft) SW 220 0 min 0,000 mm 0,0 UV-I 0 W/m -2,7 C -0,2 C 0,0 km/h (0 Bft) 0,00 %
04.01.2015 01:00 -0,2 C 83 % 1015,3 hPa 0,0 l/m 0,0 km/h (0 Bft) W-SW 255 0 min 0,000 mm 0,0 UV-I 0 W/m -2,7 C -0,2 C 0,0 km/h (0 Bft) 0,00 %
04.01.2015 01:15 -0,2 C 83 % 1016,6 hPa 0,0 l/m 0,0 km/h (0 Bft) W-SW 255 0 min 0,000 mm 0,0 UV-I 0 W/m -2,7 C -0,2 C 0,0 km/h (0 Bft) 0,00 %
04.01.2015 01:30 -0,2 C 83 % 1017,1 hPa 0,0 l/m 0,0 km/h (0 Bft) W-SW 252 0 min 0,000 mm 0,0 UV-I 0 W/m -2,7 C -0,2 C 0,0 km/h (0 Bft) 0,00 %
04.01.2015 01:45 -0,1 C 83 % 1017,6 hPa 0,3 l/m 0,0 km/h (0 Bft) NO 53 0 min 0,000 mm 0,0 UV-I 0 W/m -2,6 C -0,1 C 0,0 km/h (0 Bft) 0,00 %
04.01.2015 02:00 0,0 C 83 % 1018,2 hPa 0,0 l/m 0,0 km/h (0 Bft) O-SO 121 0 min 0,000 mm 0,0 UV-I 0 W/m -2,5 C 0,0 C 0,0 km/h (0 Bft) 0,00 %
04.01.2015 02:15 0,0 C 83 % 1018,8 hPa 0,0 l/m 4,3 km/h (1 Bft) W-SW 241 0 min 0,000 mm 0,0 UV-I 0 W/m -2,5 C 0,0 C 7,9 km/h (2 Bft) 0,00 %
04.01.2015 02:30 0,2 C 83 % 1019,7 hPa 0,0 l/m 0,0 km/h (0 Bft) S-SO 152 0 min 0,000 mm 0,0 UV-I 0 W/m -2,3 C 0,2 C 0,0 km/h (0 Bft) 0,00 %
04.01.2015 02:45 0,4 C 81 % 1019,7 hPa 0,0 l/m 1,4 km/h (1 Bft) N-NO 24 0 min 0,000 mm 0,0 UV-I 0 W/m -2,5 C 0,4 C 4,0 km/h (1 Bft) 0,00 %
04.01.2015 03:00 0,5 C 81 % 1019,4 hPa 0,0 l/m 1,8 km/h (1 Bft) W-SW 256 0 min 0,000 mm 0,0 UV-I 0 W/m -2,4 C 0,5 C 4,0 km/h (1 Bft) 0,00 %
04.01.2015 03:15 0,6 C 80 % 1020,4 hPa 0,0 l/m 6,8 km/h (2 Bft) W-SW 250 0 min 0,000 mm 0,0 UV-I 0 W/m -2,4 C 0,2 C 7,9 km/h (2 Bft) 0,00 %
04.01.2015 03:30 0,7 C 80 % 1020,7 hPa 0,0 l/m 0,7 km/h (0 Bft) W-SW 250 0 min 0,000 mm 0,0 UV-I 0 W/m -2,3 C 0,7 C 4,0 km/h (1 Bft) 0,00 %
04.01.2015 03:45 0,7 C 80 % 1021,1 hPa 0,3 l/m 4,0 km/h (1 Bft) W-SW 250 0 min 0,000 mm 0,0 UV-I 0 W/m -2,3 C 0,7 C 7,9 km/h (2 Bft) 0,00 %
04.01.2015 04:00 0,7 C 80 % 1021,3 hPa 0,0 l/m 0,4 km/h (0 Bft) SW 228 0 min 0,000 mm 0,0 UV-I 0 W/m -2,3 C 0,7 C 4,0 km/h (1 Bft) 0,00 %
04.01.2015 04:15 0,8 C 80 % 1021,5 hPa 0,0 l/m 6,8 km/h (2 Bft) W-SW 256 0 min 0,000 mm 0,0 UV-I 0 W/m -2,2 C 0,4 C 11,9 km/h (2 Bft) 0,00 %
04.01.2015 04:30 0,8 C 80 % 1021,8 hPa 0,3 l/m 0,7 km/h (0 Bft) W-SW 256 0 min 0,000 mm 0,0 UV-I 0 W/m -2,2 C 0,8 C 4,0 km/h (1 Bft) 0,00 %
04.01.2015 04:45 0,9 C 79 % 1022,1 hPa 0,3 l/m 0,7 km/h (0 Bft) W-SW 254 0 min 0,000 mm 0,0 UV-I 0 W/m -2,3 C 0,9 C 4,0 km/h (1 Bft) 0,00 %
04.01.2015 05:00 0,7 C 80 % 1022,5 hPa 0,0 l/m 0,0 km/h (0 Bft) O-SO 102 0 min 0,000 mm 0,0 UV-I 0 W/m -2,3 C 0,7 C 0,0 km/h (0 Bft) 0,00 %
04.01.2015 05:15 0,8 C 80 % 1022,5 hPa 0,3 l/m 0,7 km/h (0 Bft) SW 226 0 min 0,000 mm 0,0 UV-I 0 W/m -2,2 C 0,8 C 4,0 km/h (1 Bft) 0,00 %
04.01.2015 05:30 0,6 C 80 % 1023,0 hPa 0,3 l/m 5,8 km/h (2 Bft) W-SW 255 0 min 0,000 mm 0,0 UV-I 0 W/m -2,4 C 0,6 C 11,9 km/h (2 Bft) 0,00 %
04.01.2015 05:45 0,5 C 80 % 1023,3 hPa 0,3 l/m 4,3 km/h (1 Bft) W-SW 256 0 min 0,000 mm 0,0 UV-I 0 W/m -2,5 C 0,5 C 7,9 km/h (2 Bft) 0,00 %
04.01.2015 06:00 0,5 C 80 % 1023,6 hPa 0,3 l/m 0,0 km/h (0 Bft) S 191 0 min 0,000 mm 0,0 UV-I 0 W/m -2,5 C 0,5 C 0,0 km/h (0 Bft) 0,00 %
04.01.2015 06:15 0,5 C 80 % 1023,6 hPa 0,3 l/m 5,8 km/h (2 Bft) W-SW 256 0 min 0,000 mm 0,0 UV-I 0 W/m -2,5 C 0,5 C 7,9 km/h (2 Bft) 0,00 %
04.01.2015 06:30 0,5 C 80 % 1023,6 hPa 0,0 l/m 1,4 km/h (1 Bft) W 267 0 min 0,000 mm 0,0 UV-I 0 W/m -2,5 C 0,5 C 4,0 km/h (1 Bft) 0,00 %
04.01.2015 06:45 0,5 C 80 % 1024,1 hPa 0,0 l/m 5,4 km/h (1 Bft) W-NW 287 0 min 0,000 mm 0,0 UV-I 0 W/m -2,5 C 0,5 C 11,9 km/h (2 Bft) 0,00 %
04.01.2015 07:00 0,5 C 80 % 1024,3 hPa 0,3 l/m 4,0 km/h (1 Bft) W-SW 250 0 min 0,000 mm 0,0 UV-I 0 W/m -2,5 C 0,5 C 7,9 km/h (2 Bft) 0,00 %
04.01.2015 07:15 0,5 C 80 % 1024,3 hPa 0,0 l/m 0,7 km/h (0 Bft) W-SW 256 0 min 0,000 mm 0,0 UV-I 0 W/m -2,5 C 0,5 C 4,0 km/h (1 Bft) 0,00 %
04.01.2015 07:30 0,5 C 79 % 1024,1 hPa 0,3 l/m 2,2 km/h (1 Bft) N-NW 328 0 min 0,000 mm 0,0 UV-I 0 W/m -2,7 C 0,5 C 4,0 km/h (1 Bft) 0,00 %
04.01.2015 07:45 0,5 C 79 % 1024,9 hPa 0,0 l/m 4,0 km/h (1 Bft) W-SW 255 0 min 0,000 mm 0,0 UV-I 0 W/m -2,7 C 0,5 C 4,0 km/h (1 Bft) 0,00 %
04.01.2015 08:00 0,5 C 79 % 1025,1 hPa 0,0 l/m 0,4 km/h (0 Bft) W-SW 250 0 min 0,000 mm 0,0 UV-I 0 W/m -2,7 C 0,5 C 4,0 km/h (1 Bft) 0,00 %
04.01.2015 08:15 0,4 C 79 % 1025,2 hPa 0,0 l/m 4,3 km/h (1 Bft) W-SW 255 0 min 0,000 mm 0,0 UV-I 11 W/m -2,8 C 0,4 C 7,9 km/h (2 Bft) 0,00 %
04.01.2015 08:30 0,4 C 76 % 1025,5 hPa 0,0 l/m 4,7 km/h (1 Bft) W-SW 253 0 min 0,000 mm 0,0 UV-I 30 W/m -3,3 C 0,4 C 7,9 km/h (2 Bft) 0,00 %
04.01.2015 08:45 0,5 C 76 % 1025,3 hPa 0,0 l/m 10,4 km/h (2 Bft) W-SW 256 0 min 0,000 mm 0,0 UV-I 39 W/m -3,2 C -3,2 C 15,8 km/h (3 Bft) 0,00 %
04.01.2015 09:00 0,6 C 75 % 1025,6 hPa 0,0 l/m 4,0 km/h (1 Bft) S-SW 203 0 min 0,000 mm 0,0 UV-I 60 W/m -3,3 C 0,6 C 7,9 km/h (2 Bft) 0,00 %
04.01.2015 09:15 0,7 C 75 % 1026,0 hPa 0,3 l/m 3,2 km/h (1 Bft) S-SW 208 0 min 0,000 mm 1,0 UV-I 67 W/m -3,2 C 0,7 C 7,9 km/h (2 Bft) 0,00 %
04.01.2015 09:30 0,9 C 74 % 1026,3 hPa 0,3 l/m 2,9 km/h (1 Bft) W-SW 251 0 min 0,000 mm 1,0 UV-I 82 W/m -3,2 C 0,9 C 4,0 km/h (1 Bft) 0,00 %
04.01.2015 09:45 0,8 C 73 % 1026,7 hPa 0,0 l/m 2,2 km/h (1 Bft) W-SW 256 0 min 0,000 mm 1,0 UV-I 61 W/m -3,5 C 0,8 C 4,0 km/h (1 Bft) 0,00 %
04.01.2015 10:00 0,9 C 72 % 1027,0 hPa 0,3 l/m 2,9 km/h (1 Bft) SW 229 0 min 0,000 mm 1,0 UV-I 125 W/m -3,6 C 0,9 C 7,9 km/h (2 Bft) 0,00 %
04.01.2015 10:15 0,9 C 71 % 1027,4 hPa 0,3 l/m 4,0 km/h (1 Bft) N 351 0 min 0,000 mm 1,0 UV-I 54 W/m -3,7 C 0,9 C 7,9 km/h (2 Bft) 0,00 %
04.01.2015 10:30 0,8 C 73 % 1027,5 hPa 0,0 l/m 2,9 km/h (1 Bft) W-SW 250 0 min 0,000 mm 1,0 UV-I 58 W/m -3,5 C 0,8 C 7,9 km/h (2 Bft) 0,00 %
04.01.2015 10:45 0,9 C 73 % 1027,7 hPa 0,0 l/m 7,2 km/h (2 Bft) W-SW 255 0 min 0,000 mm 1,0 UV-I 48 W/m -3,4 C 0,1 C 7,9 km/h (2 Bft) 0,00 %
04.01.2015 11:00 0,9 C 73 % 1027,4 hPa 0,3 l/m 3,2 km/h (1 Bft) NW 313 0 min 0,000 mm 1,0 UV-I 83 W/m -3,4 C 0,9 C 4,0 km/h (1 Bft) 0,00 %
04.01.2015 11:15 1,1 C 72 % 1027,6 hPa 0,0 l/m 1,4 km/h (1 Bft) W 272 0 min 0,000 mm 1,0 UV-I 83 W/m -3,4 C 1,1 C 4,0 km/h (1 Bft) 0,00 %
04.01.2015 11:30 1,2 C 71 % 1027,5 hPa 0,3 l/m 7,2 km/h (2 Bft) W-NW 297 0 min 0,000 mm 1,0 UV-I 98 W/m -3,5 C 0,4 C 11,9 km/h (2 Bft) 0,00 %
04.01.2015 11:45 1,3 C 71 % 1027,6 hPa 0,3 l/m 15,5 km/h (3 Bft) SW 216 0 min 0,000 mm 1,0 UV-I 119 W/m -3,4 C -5,7 C 24,1 km/h (4 Bft) 0,00 %
04.01.2015 12:00 1,3 C 71 % 1027,5 hPa 0,3 l/m 11,5 km/h (2 Bft) W-SW 244 0 min 0,000 mm 1,0 UV-I 96 W/m -3,4 C -3,2 C 15,8 km/h (3 Bft) 0,00 %
04.01.2015 12:15 1,3 C 70 % 1027,6 hPa 0,0 l/m 1,8 km/h (1 Bft) W-SW 255 0 min 0,000 mm 1,0 UV-I 85 W/m -3,6 C 1,3 C 4,0 km/h (1 Bft) 0,00 %
04.01.2015 12:30 1,4 C 70 % 1027,3 hPa 0,3 l/m 0,4 km/h (0 Bft) W-SW 250 0 min 0,000 mm 1,0 UV-I 76 W/m -3,5 C 1,4 C 4,0 km/h (1 Bft) 0,00 %
04.01.2015 12:45 1,4 C 69 % 1027,2 hPa 0,3 l/m 4,0 km/h (1 Bft) NW 307 0 min 0,000 mm 1,0 UV-I 109 W/m -3,7 C 1,4 C 7,9 km/h (2 Bft) 0,00 %
04.01.2015 13:00 1,5 C 68 % 1027,4 hPa 0,3 l/m 7,2 km/h (2 Bft) W-SW 250 0 min 0,000 mm 1,0 UV-I 121 W/m -3,7 C 0,7 C 7,9 km/h (2 Bft) 0,00 %
04.01.2015 13:15 1,4 C 69 % 1026,9 hPa 0,0 l/m 12,2 km/h (2 Bft) W-SW 242 0 min 0,000 mm 1,0 UV-I 82 W/m -3,7 C -3,5 C 15,8 km/h (3 Bft) 0,00 %
04.01.2015 13:30 1,3 C 69 % 1027,2 hPa 0,3 l/m 2,9 km/h (1 Bft) W-NW 293 0 min 0,000 mm 1,0 UV-I 99 W/m -3,7 C 1,3 C 4,0 km/h (1 Bft) 0,00 %
04.01.2015 13:45 1,3 C 69 % 1027,5 hPa 0,0 l/m 5,8 km/h (2 Bft) N-NW 332 0 min 0,000 mm 1,0 UV-I 55 W/m -3,7 C 1,3 C 11,9 km/h (2 Bft) 0,00 %
04.01.2015 14:00 1,3 C 69 % 1027,5 hPa 0,3 l/m 2,9 km/h (1 Bft) W-SW 255 0 min 0,000 mm 1,0 UV-I 57 W/m -3,7 C 1,3 C 7,9 km/h (2 Bft) 0,00 %
04.01.2015 14:15 1,2 C 70 % 1027,6 hPa 0,0 l/m 2,2 km/h (1 Bft) S-SW 203 0 min 0,000 mm 1,0 UV-I 60 W/m -3,7 C 1,2 C 4,0 km/h (1 Bft) 0,00 %
04.01.2015 14:30 1,1 C 70 % 1027,8 hPa 0,3 l/m 4,7 km/h (1 Bft) W-SW 250 0 min 0,000 mm 1,0 UV-I 29 W/m -3,7 C 1,1 C 11,9 km/h (2 Bft) 0,00 %
04.01.2015 14:45 0,9 C 71 % 1028,0 hPa 0,0 l/m 2,9 km/h (1 Bft) W-SW 255 0 min 0,000 mm 0,0 UV-I 11 W/m -3,7 C 0,9 C 7,9 km/h (2 Bft) 0,00 %
04.01.2015 15:00 0,8 C 71 % 1028,3 hPa 0,0 l/m 3,2 km/h (1 Bft) O-SO 118 0 min 0,000 mm 0,0 UV-I 11 W/m -3,8 C 0,8 C 7,9 km/h (2 Bft) 0,00 %
04.01.2015 15:15 0,9 C 71 % 1028,3 hPa 0,0 l/m 2,9 km/h (1 Bft) W-SW 253 0 min 0,000 mm 0,0 UV-I 0 W/m -3,7 C 0,9 C 4,0 km/h (1 Bft) 0,00 %
04.01.2015 15:30 0,8 C 71 % 1028,3 hPa 0,0 l/m 4,7 km/h (1 Bft) S-SO 147 0 min 0,000 mm 0,0 UV-I 5 W/m -3,8 C 0,8 C 11,9 km/h (2 Bft) 0,00 %
04.01.2015 15:45 0,7 C 71 % 1028,6 hPa 0,0 l/m 15,8 km/h (3 Bft) W-NW 294 0 min 0,000 mm 0,0 UV-I 20 W/m -3,9 C -6,6 C 24,1 km/h (4 Bft) 0,00 %
04.01.2015 16:00 0,6 C 74 % 1028,7 hPa 0,0 l/m 9,0 km/h (2 Bft) W-SW 255 0 min 0,000 mm 0,0 UV-I 0 W/m -3,5 C -1,9 C 15,8 km/h (3 Bft) 0,00 %
04.01.2015 16:15 0,7 C 71 % 1028,7 hPa 0,0 l/m 5,8 km/h (2 Bft) N-NW 330 0 min 0,000 mm 0,0 UV-I 0 W/m -3,9 C 0,7 C 7,9 km/h (2 Bft) 0,00 %
04.01.2015 16:30 0,6 C 71 % 1028,7 hPa 0,0 l/m 14,8 km/h (3 Bft) W-SW 256 0 min 0,000 mm 0,0 UV-I 0 W/m -4,0 C -6,1 C 19,8 km/h (3 Bft) 0,00 %
04.01.2015 16:45 0,8 C 70 % 1028,9 hPa 0,0 l/m 6,5 km/h (2 Bft) SW 228 0 min 0,000 mm 0,0 UV-I 0 W/m -4,0 C 0,7 C 11,9 km/h (2 Bft) 0,00 %
04.01.2015 17:00 0,9 C 69 % 1028,7 hPa 0,0 l/m 6,5 km/h (2 Bft) W-SW 256 0 min 0,000 mm 0,0 UV-I 0 W/m -4,1 C 0,8 C 11,9 km/h (2 Bft) 0,00 %
04.01.2015 17:15 0,9 C 70 % 1028,8 hPa 0,0 l/m 4,0 km/h (1 Bft) W-NW 300 0 min 0,000 mm 0,0 UV-I 0 W/m -3,9 C 0,9 C 11,9 km/h (2 Bft) 0,00 %
04.01.2015 17:30 0,9 C 70 % 1028,6 hPa 0,0 l/m 9,0 km/h (2 Bft) SW 235 0 min 0,000 mm 0,0 UV-I 0 W/m -3,9 C -1,6 C 15,8 km/h (3 Bft) 0,00 %
04.01.2015 17:45 1,1 C 69 % 1028,8 hPa 0,0 l/m 8,3 km/h (2 Bft) W-SW 253 0 min 0,000 mm 0,0 UV-I 0 W/m -3,9 C -0,8 C 11,9 km/h (2 Bft) 0,00 %
04.01.2015 18:00 1,1 C 69 % 1028,6 hPa 0,0 l/m 5,8 km/h (2 Bft) S 171 0 min 0,000 mm 0,0 UV-I 0 W/m -3,9 C 1,1 C 7,9 km/h (2 Bft) 0,00 %
04.01.2015 18:15 1,1 C 70 % 1029,1 hPa 0,0 l/m 2,9 km/h (1 Bft) W-SW 250 0 min 0,000 mm 0,0 UV-I 0 W/m -3,7 C 1,1 C 4,0 km/h (1 Bft) 0,00 %
04.01.2015 18:30 1,0 C 70 % 1029,0 hPa 0,0 l/m 15,8 km/h (3 Bft) W-NW 298 0 min 0,000 mm 0,0 UV-I 0 W/m -3,8 C -6,2 C 19,8 km/h (3 Bft) 0,00 %
04.01.2015 18:45 1,0 C 70 % 1029,2 hPa 0,0 l/m 3,2 km/h (1 Bft) W-SW 252 0 min 0,000 mm 0,0 UV-I 0 W/m -3,8 C 1,0 C 15,8 km/h (3 Bft) 0,00 %
04.01.2015 19:00 1,0 C 70 % 1029,3 hPa 0,0 l/m 4,7 km/h (1 Bft) N-NW 336 0 min 0,000 mm 0,0 UV-I 0 W/m -3,8 C 1,0 C 7,9 km/h (2 Bft) 0,00 %
04.01.2015 19:15 0,9 C 70 % 1029,3 hPa 0,0 l/m 12,2 km/h (2 Bft) W-SW 256 0 min 0,000 mm 0,0 UV-I 0 W/m -3,9 C -4,1 C 24,1 km/h (4 Bft) 0,00 %
04.01.2015 19:30 1,1 C 69 % 1029,4 hPa 0,0 l/m 14,4 km/h (3 Bft) W-SW 252 0 min 0,000 mm 0,0 UV-I 0 W/m -3,9 C -5,3 C 19,8 km/h (3 Bft) 0,00 %
04.01.2015 19:45 1,1 C 69 % 1029,2 hPa 0,0 l/m 5,8 km/h (2 Bft) W-SW 258 0 min 0,000 mm 0,0 UV-I 0 W/m -3,9 C 1,1 C 7,9 km/h (2 Bft) 0,00 %
04.01.2015 20:00 1,1 C 70 % 1029,4 hPa 0,0 l/m 4,3 km/h (1 Bft) W 274 0 min 0,000 mm 0,0 UV-I 0 W/m -3,7 C 1,1 C 7,9 km/h (2 Bft) 0,00 %
04.01.2015 20:15 1,0 C 70 % 1029,7 hPa 0,0 l/m 7,2 km/h (2 Bft) NW 324 0 min 0,000 mm 0,0 UV-I 0 W/m -3,8 C 0,2 C 7,9 km/h (2 Bft) 0,00 %
04.01.2015 20:30 1,0 C 70 % 1029,6 hPa 0,0 l/m 8,3 km/h (2 Bft) W-SW 256 0 min 0,000 mm 0,0 UV-I 0 W/m -3,8 C -0,9 C 15,8 km/h (3 Bft) 0,00 %
04.01.2015 20:45 0,8 C 71 % 1029,8 hPa 0,0 l/m 6,8 km/h (2 Bft) W-SW 251 0 min 0,000 mm 0,0 UV-I 0 W/m -3,8 C 0,4 C 11,9 km/h (2 Bft) 0,00 %
04.01.2015 21:00 1,0 C 70 % 1029,7 hPa 0,0 l/m 10,8 km/h (2 Bft) W-NW 300 0 min 0,000 mm 0,0 UV-I 0 W/m -3,8 C -3,0 C 15,8 km/h (3 Bft) 0,00 %
04.01.2015 21:15 0,9 C 69 % 1029,7 hPa 0,0 l/m 18,4 km/h (3 Bft) W-SW 238 0 min 0,000 mm 0,0 UV-I 0 W/m -4,1 C -7,7 C 28,1 km/h (4 Bft) 0,00 %
04.01.2015 21:30 1,1 C 69 % 1030,0 hPa 0,0 l/m 10,4 km/h (2 Bft) N-NW 331 0 min 0,000 mm 0,0 UV-I 0 W/m -3,9 C -2,6 C 19,8 km/h (3 Bft) 0,00 %
04.01.2015 21:45 1,0 C 68 % 1030,3 hPa 0,0 l/m 6,8 km/h (2 Bft) W-SW 254 0 min 0,000 mm 0,0 UV-I 0 W/m -4,2 C 0,6 C 11,9 km/h (2 Bft) 0,00 %
04.01.2015 22:00 0,9 C 69 % 1030,4 hPa 0,0 l/m 6,5 km/h (2 Bft) S-SW 200 0 min 0,000 mm 0,0 UV-I 0 W/m -4,1 C 0,8 C 11,9 km/h (2 Bft) 0,00 %
04.01.2015 22:15 0,8 C 71 % 1030,3 hPa 0,0 l/m 13,3 km/h (3 Bft) SW 234 0 min 0,000 mm 0,0 UV-I 0 W/m -3,8 C -5,0 C 24,1 km/h (4 Bft) 0,00 %
04.01.2015 22:30 0,7 C 72 % 1030,6 hPa 0,0 l/m 9,0 km/h (2 Bft) W-SW 251 0 min 0,000 mm 0,0 UV-I 0 W/m -3,8 C -1,8 C 11,9 km/h (2 Bft) 0,00 %
04.01.2015 22:45 0,6 C 73 % 1030,8 hPa 0,0 l/m 1,8 km/h (1 Bft) W-SW 255 0 min 0,000 mm 0,0 UV-I 0 W/m -3,7 C 0,6 C 4,0 km/h (1 Bft) 0,00 %
04.01.2015 23:00 0,3 C 77 % 1031,0 hPa 0,0 l/m 13,3 km/h (3 Bft) W-SW 256 0 min 0,000 mm 0,0 UV-I 0 W/m -3,2 C -5,6 C 15,8 km/h (3 Bft) 0,00 %
04.01.2015 23:15 0,5 C 75 % 1031,5 hPa 0,0 l/m 9,0 km/h (2 Bft) W-NW 285 0 min 0,000 mm 0,0 UV-I 0 W/m -3,4 C -2,0 C 11,9 km/h (2 Bft) 0,00 %
04.01.2015 23:30 0,6 C 72 % 1031,3 hPa 0,0 l/m 10,8 km/h (2 Bft) W-NW 300 0 min 0,000 mm 0,0 UV-I 0 W/m -3,9 C -3,4 C 15,8 km/h (3 Bft) 0,00 %
04.01.2015 23:45 0,6 C 71 % 1031,7 hPa 0,0 l/m 3,2 km/h (1 Bft) W-SW 251 0 min 0,000 mm 0,0 UV-I 0 W/m -4,0 C 0,6 C 7,9 km/h (2 Bft) 0,00 %
_ Min-Zeit 00:00 13:00 00:00 - 00:00 - - - - - - 21:45 21:15 00:00 00:00
Minimum _ -0,3 C 68 % 1013,8 hPa - 0,0 km/h (0 Bft) - - - - - - -4,2 C -7,7 C 0,0 km/h (0 Bft) 0,00 %
_ Max-Zeit 13:00 00:00 23:45 00:30 21:15 - - 00:00 00:00 09:15 10:00 04:15 12:30 21:15 00:00
Maximum _ 1,5 C 83 % 1031,7 hPa 0,3 l/m 18,4 km/h
W-SW (3 Bft)
- - 0 min 0,000 mm 1,0 UV-I 125 W/m -2,2 C 1,4 C 28,1 km/h
W-SW (4 Bft)
0,00 %
Durchschnitt _ 0,7 C 74 % 1025,8 hPa #7,8 l/m 5,2 km/h (1 Bft) W-SW - #0 min. #0,000 mm 1,0 UV-I 64 W/m -3,3 C -0,3 C 8,9 km/h (2 Bft) 0,00 %